Kazan, Russia

1:19 AM MSK on December 08, 2019 (GMT +0300)
Kazan

Weather History for UWKD - October, 2019

Change the Weather History Date:

Friday, October 25, 2019

  Actual Average (WUND) Record (WUND)
Temperature  
Mean Temperature 48 °F -  
Max Temperature 55 °F - - (-1)
Min Temperature 41 °F - - (-1)
Degree Days  
Heating Degree Days 17    
Moisture  
Dew Point 40 °F    
Average Humidity 76    
Maximum Humidity 93    
Minimum Humidity 50    
Precipitation  
Precipitation 0.00 in - - ()
Sea Level Pressure  
Sea Level Pressure 30.16 in    
Wind  
Wind Speed 5 mph ()    
Max Wind Speed 13 mph    
Max Gust Speed -    
Visibility 6.1 miles    
Events      
Averages and records for this station are not official NWS values.
T = Trace of Precipitation, MM = Missing Value Source: Averaged Metar Reports

Daily Weather History Graph

Daily Weather History Graph

Search for Another Location

Airport or City:

Astronomy

Oct. 25, 2019 Rise Set
Actual Time 6:32 AM MSK 4:20 PM MSK
Civil Twilight 5:54 AM MSK 4:58 PM MSK
Nautical Twilight 5:11 AM MSK 5:41 PM MSK
Astronomical Twilight 4:29 AM MSK 6:23 PM MSK
Moon 1:52 AM MSK (10/25) 3:54 PM MSK (10/25)
Length of Visible Light 11h 03m
Length of Day
9h 47m
Waning Crescent, 11% of the Moon is Illuminated
Oct 25
Waning Crescent
Oct 28
New
Nov 4
First Quarter
Nov 12
Full
Nov 20
Last Quarter

Hourly Weather History & Observations

Time (MSK) Temp. Windchill Dew Point Humidity Pressure Visibility Wind Dir Wind Speed Gust Speed Precip Events Conditions
12:00 AM 44 °F - 41 °F 84% 30.16 in 6 mi SW 2.2 mph - -   Mostly Cloudy
12:00 AM 42.8 °F 40.2 °F 39.2 °F 87% 30.12 in - SW 4.5 mph - N/A   Clear
1:30 AM 42.8 °F - 39.2 °F 87% 30.12 in - SW 2.2 mph - N/A   Clear
2:00 AM 41.0 °F 38.1 °F 39.2 °F 93% 30.12 in - WSW 4.5 mph - N/A   Clear
2:30 AM 42.8 °F 40.2 °F 39.2 °F 87% 30.12 in - WSW 4.5 mph - N/A   Clear
3:00 AM 43 °F - 41 °F 88% 30.15 in 6 mi Calm Calm - -   Mostly Cloudy
3:00 AM 42.8 °F 40.2 °F 39.2 °F 87% 30.12 in - WSW 4.5 mph - N/A   Clear
3:30 AM 42.8 °F 40.2 °F 41.0 °F 93% 30.12 in - WSW 4.5 mph - N/A   Clear
4:30 AM 44.6 °F 42.3 °F 41.0 °F 87% 30.12 in 6.2 mi WSW 4.5 mph - N/A   Overcast
5:00 AM 44.6 °F 42.3 °F 41.0 °F 87% 30.12 in 6.2 mi NW 4.5 mph - N/A   Overcast
5:30 AM 44.6 °F - 41.0 °F 87% 30.12 in 6.2 mi WNW 2.2 mph - N/A   Overcast
6:00 AM 46 °F - 43 °F 87% 30.17 in 6 mi West 2.2 mph - -   Overcast
6:30 AM 44.6 °F 42.3 °F 42.8 °F 93% 30.15 in 6.2 mi West 4.5 mph - N/A   Overcast
7:00 AM 44.6 °F 42.3 °F 42.8 °F 93% 30.15 in 6.2 mi West 4.5 mph - N/A   Overcast
7:30 AM 44.6 °F 42.3 °F 42.8 °F 93% 30.15 in 6.2 mi West 4.5 mph - N/A   Overcast
8:30 AM 46.4 °F 44.4 °F 44.6 °F 93% 30.15 in 6.2 mi SW 4.5 mph - N/A   Scattered Clouds
9:00 AM 49 °F - 44 °F 76% 30.17 in 6 mi WSW 4.5 mph - -  
9:00 AM 48.2 °F - 44.6 °F 87% 30.15 in - WSW 6.7 mph - N/A   Clear
9:30 AM 50.0 °F - 44.6 °F 82% 30.15 in - WSW 6.7 mph - N/A   Clear
10:00 AM 51.8 °F - 42.8 °F 71% 30.15 in - West 8.9 mph - N/A   Clear
10:30 AM 51.8 °F - 42.8 °F 71% 30.15 in - WNW 8.9 mph - N/A   Clear
11:00 AM 53.6 °F - 41.0 °F 62% 30.15 in - West 8.9 mph - N/A   Clear
11:30 AM 53.6 °F - 41.0 °F 62% 30.15 in 6.2 mi West 8.9 mph - N/A   Partly Cloudy
12:00 PM 54 °F - 43 °F 57% 30.18 in 6 mi West 4.5 mph - -   Partly Cloudy
12:00 PM 55.4 °F - 42.8 °F 63% 30.15 in 6.2 mi West 11.2 mph - N/A   Scattered Clouds
12:30 PM 53.6 °F - 41.0 °F 62% 30.15 in 6.2 mi West 11.2 mph - N/A   Mostly Cloudy
1:00 PM 55.4 °F - 39.2 °F 54% 30.15 in 6.2 mi West 11.2 mph - N/A   Mostly Cloudy
1:30 PM 55.4 °F - 39.2 °F 54% 30.15 in 6.2 mi West 8.9 mph - N/A   Mostly Cloudy
2:00 PM 53.6 °F - 39.2 °F 58% 30.15 in 6.2 mi West 13.4 mph - N/A   Mostly Cloudy
2:30 PM 55.4 °F - 39.2 °F 54% 30.15 in 6.2 mi WNW 13.4 mph - N/A   Mostly Cloudy
3:00 PM 54 °F - 41 °F 50% 30.18 in 6 mi West 6.7 mph - -   Scattered Clouds
3:00 PM 53.6 °F - 39.2 °F 58% 30.15 in - WNW 8.9 mph - N/A   Clear
3:30 PM 53.6 °F - 41.0 °F 62% 30.15 in - West 8.9 mph - N/A   Clear
4:00 PM 50.0 °F - 39.2 °F 66% 30.15 in - West 6.7 mph - N/A   Clear
4:30 PM 48.2 °F - 39.2 °F 71% 30.15 in - West 4.5 mph - N/A   Clear
5:00 PM 48.2 °F - 39.2 °F 71% 30.18 in - West 4.5 mph - N/A   Clear
5:30 PM 46.4 °F 43.0 °F 39.2 °F 76% 30.18 in - West 6.7 mph - N/A   Clear
6:00 PM 47 °F - 41 °F 72% 30.21 in 6 mi West 2.2 mph - -  
6:00 PM 44.6 °F 42.3 °F 39.2 °F 81% 30.18 in - WSW 4.5 mph - N/A   Clear
7:00 PM 46.4 °F 43.0 °F 39.2 °F 76% 30.18 in - WSW 6.7 mph - N/A   Clear
7:30 PM 46.4 °F 43.0 °F 39.2 °F 76% 30.18 in - SW 6.7 mph - N/A   Clear
8:00 PM 44.6 °F 39.8 °F 37.4 °F 76% 30.18 in - WSW 8.9 mph - N/A   Clear
8:30 PM 44.6 °F 40.8 °F 39.2 °F 81% 30.18 in - WSW 6.7 mph - N/A   Clear
9:00 PM 45 °F - 40 °F 75% 30.20 in 6 mi WSW 2.2 mph - -  
9:00 PM 42.8 °F 38.7 °F 37.4 °F 81% 30.18 in - WSW 6.7 mph - N/A   Clear
9:30 PM 42.8 °F 40.2 °F 37.4 °F 81% 30.18 in - WSW 4.5 mph - N/A   Clear
10:00 PM 44.6 °F 42.3 °F 37.4 °F 76% 30.18 in - WSW 4.5 mph - N/A   Clear
10:30 PM 44.6 °F 42.3 °F 37.4 °F 76% 30.18 in - SW 4.5 mph - N/A   Clear
11:00 PM 42.8 °F 40.2 °F 39.2 °F 87% 30.15 in - SW 4.5 mph - N/A   Clear
11:30 PM 41.0 °F 38.1 °F 37.4 °F 87% 30.15 in - SW 4.5 mph - N/A   Clear